This demonstration page uses our WeatherBlox Daily Observations layout. Learn more.

Left ArrowRight Arrow

39.51506, -84.39828

Hourly Observations for October 14, 2020

Temp ( °F °C ) Dew Point ( °F °C ) Humidity (%) Winds ( mph kmh ) Pressure ( in mb ) Visibility ( mi km ) Precip ( " mm )
12:15 am 00:15 Clear 48 8.7 45 7.4 92 92 Calm 30.08 1019 10 16.0934 0 0
12:35 am 00:35 Clear 49 9.2 43 6.1 81 81 Calm 30.07 1018 10 16.0934 0 0
12:55 am 00:55 Clear 51 10.5 42 5.7 72 72 Calm 30.07 1018 10 16.0934 0 0
1:15 am 01:15 Clear 51 10.7 42 5.6 71 71 Calm 30.06 1018 10 16.0934 0 0
1:35 am 01:35 Clear 51 10.7 42 5.6 71 71 Calm 30.07 1018 10 16.0934 0 0
1:55 am 01:55 Clear 51 10.4 42 5.8 73 73 Calm 30.06 1018 10 16.0934 0 0
2:15 am 02:15 Clear 49 9.5 42 5.8 78 78 Calm 30.07 1018 10 16.0934 0 0
2:35 am 02:35 Clear 47 8.6 43 5.9 83 83 Calm 30.07 1018 10 16.0934 0 0
2:55 am 02:55 Clear 45 7.3 43 6 92 92 Calm 30.09 1019 10 16.0934 0 0
3:15 am 03:15 Clear 45 7.3 44 6.5 95 95 Calm 30.09 1019 10 16.0934 0 0
3:35 am 03:35 Clear 44 6.7 44 6.4 98 98 Calm 30.09 1019 10 16.0934 0 0
3:55 am 03:55 Clear 44 6.8 44 6.6 99 99 Calm 30.09 1019 10 16.0934 0 0
4:15 am 04:15 Clear 45 7 45 7 100 100 Calm 30.09 1019 10 16.0934 0 0
4:35 am 04:35 Clear 43 6 N/A N/A Calm 30.09 1019 10 16.0934 0 0
4:55 am 04:55 Clear 43 6 N/A N/A Calm 30.08 1019 10 16.0934 0 0
5:15 am 05:15 Hazy 43 6 N/A N/A Calm 30.08 1019 5 8.0467 0 0
5:35 am 05:35 Clear 43 6 N/A N/A Calm 30.09 1019 10 16.0934 0 0
5:55 am 05:55 Clear with Mist and Fog 41 5 N/A N/A Calm 30.09 1019 2.5 4.02335 0 0
6:15 am 06:15 Clear 43 6 N/A N/A Calm 30.1 1019 7 11.26538 0 0
6:35 am 06:35 Hazy 41 5 N/A N/A Calm 30.11 1020 7 11.26538 0 0
6:55 am 06:55 Mostly Cloudy with Mist and Fog 41 5 N/A N/A Calm 30.11 1020 1.25 2.011675 0 0
7:15 am 07:15 Clear 43 6 N/A N/A Calm 30.11 1020 10 16.0934 0 0
7:35 am 07:35 Clear 41 5 N/A N/A Calm 30.11 1020 10 16.0934 0 0
7:55 am 07:55 Sunny 43 6 N/A N/A Calm 30.11 1020 10 16.0934 0 0
8:15 am 08:15 Sunny 41 5 N/A N/A Calm 30.11 1020 10 16.0934 0 0
8:35 am 08:35 Sunny 43 6 N/A N/A Calm 30.11 1020 10 16.0934 0 0
8:55 am 08:55 Sunny 45 7 N/A N/A Calm 30.11 1020 10 16.0934 0 0
9:15 am 09:15 Sunny 47 8.4 47 8.3 99 99 Calm 30.1 1019 10 16.0934 0 0
9:35 am 09:35 Sunny 50 9.9 48 8.7 92 92 Calm 30.1 1019 10 16.0934 0 0
9:55 am 09:55 Sunny 52 11 47 8.5 85 85 Calm 30.1 1019 10 16.0934 0 0
10:15 am 10:15 Sunny 54 12.2 46 7.9 75 75 Calm 30.09 1019 10 16.0934 0 0
10:35 am 10:35 Sunny 56 13.6 48 8.7 72 72 Calm 30.09 1019 10 16.0934 0 0
10:55 am 10:55 Sunny 58 14.6 46 8 65 65 Calm 30.08 1019 10 16.0934 0 0
11:15 am 11:15 Sunny 61 15.9 46 7.6 58 58 Calm 30.06 1018 10 16.0934 0 0
11:35 am 11:35 Sunny 63 17 45 7.2 53 53 SSW 5 7 30.06 1018 10 16.0934 0 0
11:55 am 11:55 Sunny 64 18 46 7.6 51 51 WSW 8 13 30.04 1017 10 16.0934 0 0
12:15 pm 12:15 Sunny 66 19.1 46 7.5 47 47 WSW 7 11 30.03 1017 10 16.0934 0 0
12:35 pm 12:35 Sunny 68 20.2 44 6.9 42 42 W 9 15 30.02 1017 10 16.0934 0 0
12:55 pm 12:55 Sunny 69 20.3 44 6.9 42 42 WSW 13 20 30.01 1016 10 16.0934 0 0
1:15 pm 13:15 Sunny 69 20.8 46 7.5 42 42 WSW 12 19 30 1016 10 16.0934 0 0
1:30 pm 13:30 Sunny 70 20.9 46 7.6 42 42 W 8 13 29.99 1016 10 16.0934 0 0
1:55 pm 13:55 Sunny 70 21.3 46 7.5 41 41 W 12 19 29.98 1015 10 16.0934 0 0
2:15 pm 14:15 Sunny 70 21.2 45 7.3 41 41 WSW 12 19 29.96 1015 10 16.0934 0 0
2:35 pm 14:35 Sunny 72 22.3 46 8 40 40 SW 10 17 29.95 1014 10 16.0934 0 0
2:55 pm 14:55 Sunny 73 22.5 46 7.6 38 38 WSW 9 15 29.93 1014 10 16.0934 0 0
3:15 pm 15:15 Sunny 73 23 46 7.6 37 37 WSW 14 22 29.91 1013 10 16.0934 0 0
3:35 pm 15:35 Sunny 74 23.1 45 7 36 36 SW 15 24 29.9 1012 10 16.0934 0 0
3:55 pm 15:55 Sunny 74 23.6 45 7 34 34 WSW 14 22 29.88 1012 10 16.0934 0 0
4:15 pm 16:15 Sunny 74 23.3 45 7.1 35 35 SW 13 20 29.87 1011 10 16.0934 0 0
4:35 pm 16:35 Sunny 76 24.3 45 7.4 34 34 SW 16 26 29.85 1011 10 16.0934 0 0
4:55 pm 16:55 Sunny 76 24.3 45 7.3 34 34 WSW 15 24 29.84 1011 10 16.0934 0 0
5:15 pm 17:15 Sunny 76 24.2 45 7.1 33 33 WSW 14 22 29.85 1011 10 16.0934 0 0
5:35 pm 17:35 Sunny 76 24.2 45 7.4 34 34 WSW 10 17 29.84 1010 10 16.0934 0 0
5:55 pm 17:55 Sunny 75 24.1 43 6.2 32 32 WSW 15 24 29.83 1010 10 16.0934 0 0
6:15 pm 18:15 Sunny 75 23.8 43 5.9 32 32 WSW 15 24 29.82 1010 10 16.0934 0 0
6:35 pm 18:35 Sunny 74 23.1 44 6.4 34 34 SW 9 15 29.82 1010 10 16.0934 0 0
6:55 pm 18:55 Sunny 72 22.4 44 6.6 36 36 SW 12 19 29.82 1010 10 16.0934 0 0
7:15 pm 19:15 Clear 71 21.9 45 7.2 39 39 SW 12 19 29.81 1009 10 16.0934 0 0
7:35 pm 19:35 Clear 71 21.4 45 7.2 40 40 SW 9 15 29.81 1010 10 16.0934 0 0
7:55 pm 19:55 Clear 69 20.6 46 7.5 43 43 SSW 8 13 29.81 1010 10 16.0934 0 0
8:15 pm 20:15 Clear 69 20.4 46 7.7 44 44 SW 12 19 29.81 1010 10 16.0934 0 0
8:35 pm 20:35 Clear 69 20.5 46 7.6 43 43 SW 9 15 29.79 1009 10 16.0934 0 0
8:55 pm 20:55 Clear 68 20.2 46 7.5 44 44 SW 12 19 29.78 1009 10 16.0934 0 0
9:15 pm 21:15 Clear 67 19.7 45 7.4 45 45 SW 10 17 29.79 1009 10 16.0934 0 0
9:35 pm 21:35 Clear 67 19.7 45 7.3 45 45 SW 13 20 29.78 1008 10 16.0934 0 0
9:55 pm 21:55 Clear 68 19.8 45 7.2 44 44 WSW 10 17 29.78 1008 10 16.0934 0 0
10:15 pm 22:15 Clear 67 19.5 45 7.4 46 46 WSW 13 20 29.78 1008 10 16.0934 0 0
10:35 pm 22:35 Clear 67 19.3 46 7.5 47 47 WSW 13 20 29.78 1008 10 16.0934 0 0
10:55 pm 22:55 Clear 66 19.1 46 7.6 47 47 WSW 12 19 29.78 1008 10 16.0934 0 0
11:15 pm 23:15 Clear 65 18.5 46 7.6 49 49 WSW 10 17 29.78 1008 10 16.0934 0 0
11:35 pm 23:35 Clear 65 18.5 46 7.6 49 49 WSW 12 19 29.77 1008 10 16.0934 0 0
11:55 pm 23:55 Clear 65 18.3 46 7.7 50 50 WSW 12 19 29.77 1008 10 16.0934 0 0

Powered by AerisWeather